| time (UTC) | temp C | wind direction | speed KPH | gust KPH | rain 1hr cm | rain 24hr cm | rain mn cm | humidity % | barometer mb |
| 20260506143052 | 12 | 216 | 20.9 | 38.6 | 0.00 | 0.00 | 0.00 | 95 | 1010.7 |
| 20260506142550 | 12 | 153 | 29.0 | 37.0 | 0.00 | 0.00 | 0.00 | 95 | 1010.5 |
| 20260506142048 | 12 | 198 | 22.5 | 35.4 | 0.00 | 0.00 | 0.00 | 95 | 1010.7 |
| 20260506141545 | 12 | 235 | 22.5 | 33.8 | 0.00 | 0.00 | 0.00 | 95 | 1010.7 |
| 20260506141044 | 12 | 211 | 27.4 | 41.8 | 0.00 | 0.00 | 0.00 | 95 | 1010.9 |
| 20260506140541 | 12 | 180 | 22.5 | 37.0 | 0.00 | 0.00 | 0.00 | 95 | 1011.1 |
| 20260506140038 | 12 | 195 | 27.4 | 38.6 | 0.00 | 0.00 | 0.00 | 95 | 1011.1 |
| 20260506135535 | 12 | 203 | 29.0 | 37.0 | 0.00 | 0.00 | 0.00 | 95 | 1011.0 |
| 20260506135031 | 12 | 211 | 24.1 | 33.8 | 0.00 | 0.00 | 0.00 | 95 | 1011.1 |
| 20260506134527 | 12 | 214 | 24.1 | 37.0 | 0.00 | 0.00 | 0.00 | 96 | 1011.0 |
| 20260506134024 | 12 | 187 | 33.8 | 40.2 | 0.00 | 0.00 | 0.00 | 96 | 1011.1 |
| 20260506133521 | 12 | 232 | 33.8 | 41.8 | 0.00 | 0.00 | 0.00 | 96 | 1011.4 |
| 20260506133018 | 12 | 225 | 27.4 | 35.4 | 0.00 | 0.00 | 0.00 | 96 | 1011.2 |
| 20260506132515 | 12 | 187 | 32.2 | 41.8 | 0.00 | 0.00 | 0.00 | 96 | 1011.0 |
| 20260506132012 | 12 | 229 | 25.7 | 37.0 | 0.00 | 0.00 | 0.00 | 96 | 1011.4 |
| 20260506131509 | 12 | 201 | 20.9 | 33.8 | 0.00 | 0.00 | 0.00 | 96 | 1011.1 |
| 20260506131006 | 12 | 187 | 25.7 | 38.6 | 0.00 | 0.00 | 0.00 | 96 | 1011.1 |
| 20260506130502 | 12 | 156 | 20.9 | 37.0 | 0.00 | 0.00 | 0.00 | 96 | 1010.9 |
| 20260506125959 | 11 | 231 | 24.1 | 40.2 | 0.00 | 0.00 | 0.00 | 96 | 1011.0 |
| 20260506125458 | 11 | 222 | 25.7 | 40.2 | 0.00 | 0.00 | 0.00 | 96 | 1010.9 |
| 20260506124955 | 11 | 191 | 27.4 | 37.0 | 0.00 | 0.00 | 0.00 | 96 | 1010.8 |
| 20260506124453 | 11 | 230 | 22.5 | 40.2 | 0.00 | 0.00 | 0.00 | 96 | 1010.8 |
| 20260506123951 | 11 | 178 | 24.1 | 35.4 | 0.00 | 0.00 | 0.00 | 96 | 1011.0 |
| 20260506123449 | 11 | 199 | 30.6 | 38.6 | 0.00 | 0.00 | 0.00 | 96 | 1011.0 |
| 20260506122946 | 11 | 207 | 24.1 | 38.6 | 0.00 | 0.00 | 0.00 | 96 | 1011.0 |
| 20260506122443 | 11 | 154 | 24.1 | 35.4 | 0.00 | 0.00 | 0.00 | 96 | 1011.2 |
| 20260506121941 | 11 | 227 | 20.9 | 38.6 | 0.00 | 0.00 | 0.00 | 96 | 1011.2 |
| 20260506121438 | 11 | 197 | 22.5 | 38.6 | 0.00 | 0.00 | 0.00 | 96 | 1011.1 |
| 20260506120934 | 11 | 208 | 25.7 | 40.2 | 0.00 | 0.00 | 0.00 | 97 | 1011.2 |
| 20260506120432 | 11 | 213 | 27.4 | 43.5 | 0.00 | 0.00 | 0.00 | 96 | 1011.3 |
| 20260506115929 | 11 | 193 | 25.7 | 38.6 | 0.00 | 0.00 | 0.00 | 97 | 1011.3 |
| 20260506115427 | 11 | 199 | 29.0 | 41.8 | 0.00 | 0.00 | 0.00 | 97 | 1011.4 |
| 20260506114925 | 11 | 182 | 29.0 | 41.8 | 0.00 | 0.00 | 0.00 | 97 | 1011.3 |
| 20260506114423 | 11 | 173 | 35.4 | 46.7 | 0.00 | 0.00 | 0.00 | 97 | 1011.5 |
| 20260506113921 | 11 | 199 | 24.1 | 41.8 | 0.00 | 0.00 | 0.00 | 97 | 1011.1 |
| 20260506113419 | 11 | 199 | 32.2 | 43.5 | 0.00 | 0.00 | 0.00 | 97 | 1011.4 |
| 20260506112915 | 11 | 221 | 30.6 | 40.2 | 0.00 | 0.00 | 0.00 | 97 | 1011.2 |
| 20260506112413 | 11 | 219 | 25.7 | 43.5 | 0.00 | 0.00 | 0.00 | 97 | 1010.9 |
| 20260506111910 | 11 | 185 | 25.7 | 35.4 | 0.00 | 0.00 | 0.00 | 97 | 1011.0 |
| 20260506111408 | 11 | 208 | 24.1 | 37.0 | 0.00 | 0.00 | 0.00 | 97 | 1011.1 |
| 20260506110905 | 11 | 192 | 20.9 | 35.4 | 0.00 | 0.00 | 0.00 | 97 | 1011.1 |
| 20260506110402 | 11 | 189 | 24.1 | 41.8 | 0.00 | 0.00 | 0.00 | 97 | 1011.2 |
| 20260506105858 | 11 | 175 | 22.5 | 35.4 | 0.00 | 0.00 | 0.00 | 97 | 1011.3 |
| 20260506105355 | 11 | 165 | 17.7 | 38.6 | 0.00 | 0.00 | 0.00 | 96 | 1011.2 |
| 20260506104852 | 11 | 200 | 30.6 | 37.0 | 0.00 | 0.00 | 0.00 | 96 | 1011.3 |
| 20260506104350 | 11 | 186 | 22.5 | 40.2 | 0.00 | 0.00 | 0.00 | 96 | 1011.2 |
| 20260506103847 | 11 | 201 | 29.0 | 40.2 | 0.00 | 0.00 | 0.00 | 96 | 1010.9 |
| 20260506103345 | 11 | 197 | 22.5 | 37.0 | 0.00 | 0.00 | 0.00 | 96 | 1010.9 |
| 20260506102842 | 11 | 218 | 24.1 | 46.7 | 0.00 | 0.00 | 0.00 | 96 | 1011.0 |
| 20260506102340 | 11 | 238 | 22.5 | 40.2 | 0.00 | 0.00 | 0.00 | 96 | 1011.0 |
| 20260506101837 | 11 | 202 | 27.4 | 35.4 | 0.00 | 0.00 | 0.00 | 96 | 1011.0 |
| 20260506101333 | 11 | 209 | 22.5 | 37.0 | 0.00 | 0.00 | 0.00 | 96 | 1011.0 |
| 20260506100831 | 11 | 190 | 29.0 | 37.0 | 0.00 | 0.00 | 0.00 | 96 | 1010.9 |
| 20260506100329 | 11 | 186 | 25.7 | 38.6 | 0.00 | 0.00 | 0.00 | 96 | 1010.9 |
| 20260506095827 | 11 | 162 | 25.7 | 37.0 | 0.00 | 0.00 | 0.00 | 96 | 1010.9 |
| 20260506095324 | 11 | 220 | 22.5 | 38.6 | 0.00 | 0.00 | 0.00 | 96 | 1010.8 |
| 20260506094821 | 11 | 206 | 25.7 | 35.4 | 0.00 | 0.00 | 0.00 | 96 | 1010.8 |
| 20260506094320 | 11 | 204 | 29.0 | 37.0 | 0.00 | 0.00 | 0.00 | 96 | 1010.8 |
| 20260506093817 | 11 | 191 | 35.4 | 48.3 | 0.00 | 0.00 | 0.00 | 96 | 1011.0 |
| 20260506093314 | 11 | 203 | 25.7 | 35.4 | 0.00 | 0.00 | 0.00 | 96 | 1011.0 |
| 20260506092812 | 11 | 206 | 29.0 | 38.6 | 0.00 | 0.00 | 0.00 | 96 | 1011.0 |
| 20260506092309 | 11 | 223 | 27.4 | 40.2 | 0.00 | 0.00 | 0.00 | 96 | 1010.9 |
| 20260506091807 | 11 | 195 | 25.7 | 41.8 | 0.00 | 0.00 | 0.00 | 96 | 1010.9 |
| 20260506091304 | 11 | 208 | 29.0 | 40.2 | 0.00 | 0.00 | 0.00 | 96 | 1010.9 |
| 20260506090802 | 11 | 193 | 24.1 | 37.0 | 0.00 | 0.00 | 0.00 | 95 | 1011.0 |
| 20260506090259 | 12 | 206 | 29.0 | 37.0 | 0.00 | 0.00 | 0.00 | 95 | 1011.1 |
| 20260506085755 | 12 | 203 | 29.0 | 41.8 | 0.00 | 0.00 | 0.00 | 95 | 1011.5 |
| 20260506085252 | 12 | 205 | 20.9 | 33.8 | 0.00 | 0.00 | 0.00 | 95 | 1011.2 |
| 20260506084748 | 12 | 143 | 29.0 | 41.8 | 0.00 | 0.00 | 0.00 | 95 | 1011.0 |
| 20260506084245 | 12 | 186 | 25.7 | 37.0 | 0.00 | 0.00 | 0.00 | 95 | 1011.1 |
| 20260506083742 | 12 | 178 | 22.5 | 37.0 | 0.00 | 0.00 | 0.00 | 95 | 1011.2 |
| 20260506083239 | 12 | 176 | 24.1 | 40.2 | 0.00 | 0.00 | 0.00 | 95 | 1011.2 |
| 20260506082737 | 12 | 200 | 30.6 | 46.7 | 0.00 | 0.00 | 0.00 | 95 | 1011.3 |
| 20260506082232 | 12 | 191 | 25.7 | 41.8 | 0.00 | 0.00 | 0.00 | 95 | 1011.1 |
| 20260506081730 | 12 | 190 | 27.4 | 40.2 | 0.00 | 0.00 | 0.00 | 95 | 1011.3 |
| 20260506081227 | 12 | 211 | 29.0 | 38.6 | 0.00 | 0.00 | 0.00 | 95 | 1011.3 |
| 20260506080725 | 12 | 202 | 25.7 | 38.6 | 0.00 | 0.00 | 0.00 | 95 | 1011.4 |
| 20260506080221 | 12 | 178 | 30.6 | 35.4 | 0.00 | 0.00 | 0.00 | 95 | 1011.3 |
| 20260506073206 | 12 | 190 | 30.6 | 37.0 | 0.00 | 0.00 | 0.00 | 94 | 1011.4 |
| 20260506072702 | 12 | 199 | 30.6 | 38.6 | 0.00 | 0.00 | 0.00 | 94 | 1011.7 |
| 20260506072200 | 12 | 200 | 32.2 | 46.7 | 0.00 | 0.00 | 0.00 | 94 | 1011.5 |
| 20260506071657 | 12 | 202 | 20.9 | 40.2 | 0.00 | 0.00 | 0.00 | 94 | 1011.6 |
| 20260506071155 | 12 | 210 | 29.0 | 48.3 | 0.00 | 0.00 | 0.00 | 94 | 1011.6 |
| 20260506070651 | 12 | 210 | 29.0 | 38.6 | 0.00 | 0.00 | 0.00 | 94 | 1011.7 |
| 20260506070148 | 12 | 191 | 29.0 | 43.5 | 0.00 | 0.00 | 0.00 | 94 | 1011.6 |
| 20260506062126 | 12 | 223 | 24.1 | 41.8 | 0.00 | 0.00 | 0.00 | 93 | 1011.5 |
| 20260506061621 | 12 | 210 | 35.4 | 41.8 | 0.00 | 0.00 | 0.00 | 93 | 1011.4 |
| 20260506061120 | 12 | 200 | 35.4 | 41.8 | 0.00 | 0.00 | 0.00 | 93 | 1011.7 |
| 20260506060618 | 12 | 191 | 35.4 | 46.7 | 0.00 | 0.00 | 0.00 | 93 | 1011.6 |
| 20260506060114 | 12 | 232 | 30.6 | 48.3 | 0.00 | 0.00 | 0.00 | 93 | 1011.6 |
| 20260506051046 | 12 | 202 | 40.2 | 48.3 | 0.00 | 0.00 | 0.00 | 92 | 1011.9 |
| 20260506050544 | 12 | 204 | 41.8 | 49.9 | 0.00 | 0.00 | 0.00 | 92 | 1011.7 |
| 20260506045034 | 12 | 165 | 38.6 | 51.5 | 0.00 | 0.00 | 0.00 | 92 | 1011.9 |
| 20260506044532 | 12 | 157 | 40.2 | 53.1 | 0.00 | 0.00 | 0.00 | 92 | 1011.9 |
| 20260506044029 | 12 | 230 | 40.2 | 48.3 | 0.00 | 0.00 | 0.00 | 92 | 1012.0 |
| 20260506043526 | 12 | 206 | 43.5 | 49.9 | 0.00 | 0.00 | 0.00 | 92 | 1012.2 |
| 20260506043025 | 12 | 229 | 38.6 | 48.3 | 0.00 | 0.00 | 0.00 | 91 | 1011.9 |
| 20260506042523 | 12 | 221 | 38.6 | 49.9 | 0.00 | 0.00 | 0.00 | 91 | 1011.9 |
| 20260506042021 | 12 | 182 | 38.6 | 51.5 | 0.00 | 0.00 | 0.00 | 91 | 1011.8 |
| 20260506041519 | 12 | 182 | 37.0 | 53.1 | 0.00 | 0.00 | 0.00 | 91 | 1012.0 |
| 20260506041016 | 12 | 198 | 37.0 | 49.9 | 0.00 | 0.00 | 0.00 | 91 | 1012.0 |
| 20260506040514 | 12 | 189 | 38.6 | 51.5 | 0.00 | 0.00 | 0.00 | 91 | 1012.1 |
| 20260506040009 | 12 | 184 | 41.8 | 56.3 | 0.00 | 0.00 | 0.00 | 91 | 1012.0 |
| 20260506035506 | 12 | 219 | 48.3 | 53.1 | 0.00 | 0.00 | 0.00 | 90 | 1011.7 |
| 20260506035003 | 12 | 196 | 38.6 | 53.1 | 0.00 | 0.00 | 0.00 | 90 | 1011.8 |
| 20260506034501 | 12 | 184 | 43.5 | 53.1 | 0.00 | 0.00 | 0.00 | 90 | 1012.0 |
| 20260506033957 | 13 | 198 | 41.8 | 54.7 | 0.00 | 0.00 | 0.00 | 90 | 1011.8 |
| 20260506033455 | 13 | 209 | 45.1 | 56.3 | 0.00 | 0.00 | 0.00 | 90 | 1011.8 |
| 20260506032951 | 13 | 219 | 45.1 | 54.7 | 0.00 | 0.00 | 0.00 | 90 | 1011.9 |
| 20260506032449 | 13 | 196 | 46.7 | 57.9 | 0.00 | 0.00 | 0.00 | 90 | 1011.6 |
| 20260506031945 | 13 | 208 | 51.5 | 54.7 | 0.00 | 0.00 | 0.00 | 90 | 1011.8 |
| 20260506031443 | 13 | 224 | 40.2 | 54.7 | 0.00 | 0.00 | 0.00 | 90 | 1011.8 |
| 20260506030940 | 13 | 205 | 38.6 | 53.1 | 0.00 | 0.00 | 0.00 | 90 | 1011.8 |
| 20260506030438 | 13 | 178 | 40.2 | 53.1 | 0.00 | 0.00 | 0.00 | 90 | 1011.9 |
| 20260506025934 | 13 | 193 | 48.3 | 54.7 | 0.00 | 0.00 | 0.00 | 90 | 1011.9 |
| 20260506025431 | 13 | 204 | 38.6 | 51.5 | 0.00 | 0.00 | 0.00 | 90 | 1011.9 |
| 20260506024928 | 13 | 203 | 48.3 | 53.1 | 0.00 | 0.00 | 0.00 | 90 | 1012.1 |
| 20260506024425 | 13 | 196 | 43.5 | 53.1 | 0.00 | 0.00 | 0.00 | 90 | 1011.9 |
| 20260506023921 | 13 | 227 | 40.2 | 51.5 | 0.00 | 0.00 | 0.00 | 90 | 1011.8 |
| 20260506023418 | 13 | 199 | 46.7 | 49.9 | 0.00 | 0.00 | 0.00 | 89 | 1011.7 |
| 20260506022914 | 13 | 190 | 43.5 | 51.5 | 0.00 | 0.00 | 0.00 | 89 | 1011.7 |
| 20260506022412 | 13 | 196 | 48.3 | 57.9 | 0.00 | 0.00 | 0.00 | 89 | 1011.8 |
| 20260506021910 | 13 | 185 | 48.3 | 57.9 | 0.00 | 0.00 | 0.00 | 89 | 1011.7 |
| 20260506021407 | 13 | 210 | 48.3 | 53.1 | 0.00 | 0.00 | 0.00 | 89 | 1011.9 |
| 20260506020904 | 13 | 201 | 37.0 | 49.9 | 0.00 | 0.00 | 0.00 | 89 | 1011.9 |
| 20260506020402 | 13 | 207 | 40.2 | 53.1 | 0.00 | 0.00 | 0.00 | 89 | 1011.8 |
| 20260506015859 | 13 | 191 | 49.9 | 54.7 | 0.00 | 0.00 | 0.00 | 89 | 1011.8 |
| 20260506015356 | 13 | 231 | 46.7 | 56.3 | 0.00 | 0.00 | 0.00 | 89 | 1011.6 |
| 20260506014853 | 13 | 193 | 40.2 | 56.3 | 0.00 | 0.00 | 0.00 | 88 | 1011.8 |
| 20260506014350 | 13 | 193 | 37.0 | 51.5 | 0.00 | 0.00 | 0.00 | 88 | 1011.5 |
| 20260506013846 | 13 | 205 | 40.2 | 53.1 | 0.00 | 0.00 | 0.00 | 88 | 1011.6 |
| 20260506013344 | 13 | 194 | 35.4 | 51.5 | 0.00 | 0.00 | 0.00 | 88 | 1011.6 |
| 20260506012840 | 13 | 203 | 37.0 | 48.3 | 0.00 | 0.00 | 0.00 | 88 | 1011.7 |
| 20260506012337 | 13 | 242 | 37.0 | 51.5 | 0.00 | 0.00 | 0.00 | 88 | 1011.8 |
| 20260506011835 | 13 | 233 | 32.2 | 51.5 | 0.00 | 0.00 | 0.00 | 88 | 1011.6 |
| 20260506011331 | 13 | 212 | 35.4 | 51.5 | 0.00 | 0.00 | 0.00 | 88 | 1011.6 |
| 20260506010829 | 13 | 200 | 40.2 | 49.9 | 0.00 | 0.00 | 0.00 | 88 | 1011.4 |
| 20260506010326 | 13 | 205 | 27.4 | 48.3 | 0.00 | 0.00 | 0.00 | 88 | 1011.6 |
| 20260506005823 | 13 | 171 | 32.2 | 48.3 | 0.00 | 0.00 | 0.00 | 87 | 1011.7 |
| 20260506005320 | 13 | 194 | 41.8 | 51.5 | 0.00 | 0.00 | 0.00 | 87 | 1011.3 |
| 20260506004816 | 13 | 205 | 30.6 | 43.5 | 0.00 | 0.00 | 0.00 | 87 | 1011.5 |
| 20260506004314 | 13 | 200 | 45.1 | 56.3 | 0.00 | 0.00 | 0.00 | 87 | 1011.5 |
| 20260506003809 | 13 | 189 | 30.6 | 51.5 | 0.00 | 0.00 | 0.00 | 87 | 1011.2 |
| 20260506003306 | 13 | 177 | 38.6 | 53.1 | 0.00 | 0.00 | 0.00 | 87 | 1011.2 |
| 20260506002802 | 13 | 202 | 38.6 | 51.5 | 0.00 | 0.00 | 0.00 | 87 | 1011.1 |
| 20260506002259 | 13 | 207 | 45.1 | 56.3 | 0.00 | 0.00 | 0.00 | 87 | 1011.1 |
| 20260506001754 | 13 | 196 | 43.5 | 53.1 | 0.00 | 0.00 | 0.00 | 86 | 1011.2 |
| 20260506001252 | 14 | 210 | 46.7 | 56.3 | 0.00 | 0.00 | 0.00 | 85 | 1011.1 |
| 20260506000749 | 14 | 210 | 46.7 | 56.3 | 0.00 | 0.00 | 0.00 | 85 | 1011.1 |
| 20260506000247 | 14 | 200 | 46.7 | 56.3 | 0.00 | 0.00 | 0.00 | 85 | 1011.0 |
| 20260505235743 | 14 | 188 | 53.1 | 61.2 | 0.00 | 0.00 | 0.00 | 85 | 1010.9 |
| 20260505235241 | 14 | 219 | 51.5 | 56.3 | 0.00 | 0.00 | 0.00 | 85 | 1010.8 |
| 20260505234738 | 14 | 198 | 51.5 | 66.0 | 0.00 | 0.00 | 0.00 | 85 | 1010.3 |
| 20260505234235 | 14 | 188 | 45.1 | 61.2 | 0.00 | 0.00 | 0.00 | 85 | 1010.5 |
| 20260505233731 | 14 | 199 | 51.5 | 61.2 | 0.00 | 0.00 | 0.00 | 85 | 1010.2 |
| 20260505233230 | 14 | 188 | 48.3 | 54.7 | 0.00 | 0.00 | 0.00 | 85 | 1010.4 |
| 20260505232726 | 14 | 196 | 45.1 | 56.3 | 0.00 | 0.00 | 0.00 | 85 | 1010.1 |
| 20260505232224 | 14 | 195 | 46.7 | 57.9 | 0.00 | 0.00 | 0.00 | 85 | 1010.2 |
| 20260505231721 | 14 | 189 | 51.5 | 62.8 | 0.00 | 0.00 | 0.00 | 85 | 1010.1 |
| 20260505231220 | 14 | 207 | 48.3 | 61.2 | 0.00 | 0.00 | 0.00 | 85 | 1010.0 |
| 20260505230717 | 14 | 196 | 46.7 | 56.3 | 0.00 | 0.00 | 0.00 | 85 | 1010.0 |
| 20260505230214 | 14 | 205 | 49.9 | 56.3 | 0.00 | 0.00 | 0.00 | 85 | 1010.0 |
| 20260505225710 | 14 | 176 | 46.7 | 62.8 | 0.00 | 0.00 | 0.00 | 85 | 1010.1 |
| 20260505225207 | 14 | 196 | 46.7 | 57.9 | 0.00 | 0.00 | 0.00 | 85 | 1009.9 |
| 20260505224702 | 14 | 202 | 43.5 | 56.3 | 0.00 | 0.00 | 0.00 | 85 | 1010.0 |
| 20260505224201 | 14 | 210 | 46.7 | 64.4 | 0.00 | 0.00 | 0.00 | 85 | 1009.6 |
| 20260505223658 | 14 | 174 | 43.5 | 57.9 | 0.00 | 0.00 | 0.00 | 85 | 1009.8 |
| 20260505223153 | 14 | 188 | 33.8 | 54.7 | 0.00 | 0.00 | 0.00 | 85 | 1009.7 |
| 20260505222650 | 14 | 220 | 32.2 | 51.5 | 0.00 | 0.00 | 0.00 | 85 | 1009.8 |
| 20260505222146 | 14 | 192 | 40.2 | 51.5 | 0.00 | 0.00 | 0.00 | 85 | 1009.7 |
| 20260505221643 | 14 | 179 | 37.0 | 46.7 | 0.00 | 0.00 | 0.00 | 85 | 1009.7 |
| 20260505221140 | 14 | 243 | 25.7 | 40.2 | 0.00 | 0.00 | 0.00 | 84 | 1009.6 |
| 20260505220637 | 14 | 177 | 35.4 | 51.5 | 0.00 | 0.00 | 0.00 | 84 | 1009.7 |
| 20260505220135 | 14 | 176 | 27.4 | 41.8 | 0.00 | 0.00 | 0.00 | 84 | 1009.7 |
| 20260505215632 | 14 | 205 | 43.5 | 53.1 | 0.00 | 0.00 | 0.00 | 84 | 1009.5 |
| 20260505215130 | 14 | 191 | 33.8 | 43.5 | 0.00 | 0.00 | 0.00 | 84 | 1009.4 |
| 20260505214628 | 14 | 162 | 37.0 | 49.9 | 0.00 | 0.00 | 0.00 | 84 | 1009.6 |
| 20260505214125 | 14 | 184 | 35.4 | 46.7 | 0.00 | 0.00 | 0.00 | 84 | 1009.5 |
| 20260505213622 | 14 | 173 | 29.0 | 51.5 | 0.00 | 0.00 | 0.00 | 84 | 1009.7 |
| 20260505213119 | 14 | 200 | 35.4 | 56.3 | 0.00 | 0.00 | 0.00 | 83 | 1009.4 |
| 20260505212615 | 15 | 195 | 25.7 | 41.8 | 0.00 | 0.00 | 0.00 | 83 | 1009.3 |
| 20260505212113 | 15 | 221 | 37.0 | 46.7 | 0.00 | 0.00 | 0.00 | 84 | 1009.3 |
| 20260505211609 | 15 | 199 | 30.6 | 43.5 | 0.00 | 0.00 | 0.00 | 84 | 1009.2 |
| 20260505211107 | 14 | 197 | 25.7 | 46.7 | 0.00 | 0.00 | 0.00 | 84 | 1009.2 |
| 20260505210603 | 14 | 207 | 33.8 | 49.9 | 0.00 | 0.00 | 0.00 | 84 | 1009.2 |
| 20260505210100 | 14 | 228 | 33.8 | 51.5 | 0.00 | 0.00 | 0.00 | 84 | 1009.3 |
| 20260505205558 | 14 | 213 | 32.2 | 56.3 | 0.00 | 0.00 | 0.00 | 85 | 1009.5 |
| 20260505205055 | 14 | 156 | 33.8 | 53.1 | 0.00 | 0.00 | 0.00 | 85 | 1009.4 |
| 20260505204552 | 14 | 207 | 32.2 | 43.5 | 0.00 | 0.00 | 0.00 | 85 | 1009.2 |
| 20260505204050 | 14 | 190 | 30.6 | 53.1 | 0.00 | 0.00 | 0.00 | 85 | 1009.5 |
| 20260505203546 | 14 | 214 | 35.4 | 48.3 | 0.00 | 0.00 | 0.00 | 85 | 1009.4 |
| 20260505203043 | 14 | 202 | 29.0 | 37.0 | 0.00 | 0.00 | 0.00 | 85 | 1009.3 |
| 20260505202539 | 14 | 234 | 27.4 | 41.8 | 0.00 | 0.00 | 0.00 | 85 | 1009.2 |
| 20260505202035 | 14 | 199 | 29.0 | 43.5 | 0.00 | 0.00 | 0.00 | 85 | 1009.6 |
| 20260505201532 | 14 | 186 | 24.1 | 38.6 | 0.00 | 0.00 | 0.00 | 85 | 1009.4 |
| 20260505201030 | 14 | 162 | 27.4 | 37.0 | 0.00 | 0.00 | 0.00 | 85 | 1009.3 |
| 20260505200528 | 14 | 216 | 27.4 | 41.8 | 0.00 | 0.00 | 0.00 | 85 | 1009.7 |
| 20260505200025 | 14 | 163 | 32.2 | 41.8 | 0.00 | 0.00 | 0.00 | 85 | 1009.4 |
| 20260505195520 | 14 | 212 | 27.4 | 38.6 | 0.00 | 0.00 | 0.00 | 86 | 1009.5 |
| 20260505195018 | 14 | 213 | 24.1 | 35.4 | 0.00 | 0.00 | 0.00 | 86 | 1009.5 |
| 20260505194515 | 14 | 181 | 30.6 | 40.2 | 0.00 | 0.00 | 0.00 | 86 | 1009.9 |
| 20260505194010 | 14 | 180 | 30.6 | 38.6 | 0.00 | 0.00 | 0.00 | 86 | 1009.8 |
| 20260505193508 | 14 | 229 | 33.8 | 40.2 | 0.00 | 0.00 | 0.00 | 86 | 1009.8 |
| 20260505193005 | 14 | 209 | 30.6 | 37.0 | 0.00 | 0.00 | 0.00 | 86 | 1009.9 |
| 20260505192503 | 14 | 162 | 27.4 | 40.2 | 0.00 | 0.00 | 0.00 | 85 | 1009.9 |
| 20260505192001 | 14 | 202 | 24.1 | 33.8 | 0.00 | 0.00 | 0.00 | 85 | 1010.2 |
| 20260505191459 | 14 | 178 | 14.5 | 30.6 | 0.00 | 0.00 | 0.00 | 86 | 1010.3 |
| 20260505190956 | 14 | 184 | 25.7 | 30.6 | 0.00 | 0.00 | 0.00 | 86 | 1010.6 |
| 20260505190450 | 14 | 204 | 20.9 | 35.4 | 0.00 | 0.00 | 0.00 | 86 | 1010.4 |
| 20260505185946 | 14 | 183 | 27.4 | 40.2 | 0.00 | 0.00 | 0.00 | 86 | 1010.6 |
| 20260505185444 | 14 | 208 | 29.0 | 33.8 | 0.00 | 0.00 | 0.00 | 86 | 1010.5 |
| 20260505184940 | 14 | 184 | 22.5 | 41.8 | 0.00 | 0.00 | 0.00 | 86 | 1010.7 |
| 20260505184437 | 14 | 214 | 22.5 | 35.4 | 0.00 | 0.00 | 0.00 | 86 | 1010.8 |
| 20260505183933 | 14 | 206 | 27.4 | 38.6 | 0.00 | 0.00 | 0.00 | 86 | 1010.8 |
| 20260505183430 | 14 | 197 | 24.1 | 33.8 | 0.00 | 0.00 | 0.00 | 86 | 1010.8 |
| 20260505182927 | 14 | 211 | 27.4 | 37.0 | 0.00 | 0.00 | 0.00 | 86 | 1011.1 |
| 20260505182424 | 14 | 181 | 25.7 | 35.4 | 0.00 | 0.00 | 0.00 | 86 | 1010.9 |
| 20260505181920 | 14 | 177 | 24.1 | 35.4 | 0.00 | 0.00 | 0.00 | 86 | 1010.9 |
| 20260505181418 | 14 | 211 | 29.0 | 35.4 | 0.00 | 0.00 | 0.00 | 86 | 1011.0 |
| 20260505180914 | 14 | 176 | 22.5 | 30.6 | 0.00 | 0.00 | 0.00 | 86 | 1011.2 |
| 20260505180411 | 14 | 218 | 20.9 | 30.6 | 0.00 | 0.00 | 0.00 | 86 | 1011.1 |
| 20260505175908 | 14 | 180 | 25.7 | 33.8 | 0.00 | 0.00 | 0.00 | 87 | 1011.3 |
| 20260505175404 | 14 | 204 | 20.9 | 27.4 | 0.00 | 0.00 | 0.00 | 86 | 1011.2 |
| 20260505174900 | 14 | 210 | 16.1 | 27.4 | 0.00 | 0.00 | 0.00 | 87 | 1011.4 |
| 20260505174358 | 14 | 170 | 22.5 | 25.7 | 0.00 | 0.00 | 0.00 | 87 | 1011.4 |
| 20260505173854 | 14 | 193 | 19.3 | 25.7 | 0.00 | 0.00 | 0.00 | 87 | 1011.4 |
| 20260505173351 | 14 | 190 | 14.5 | 25.7 | 0.00 | 0.00 | 0.00 | 87 | 1011.4 |
| 20260505172848 | 14 | 179 | 20.9 | 29.0 | 0.00 | 0.00 | 0.00 | 87 | 1011.3 |
| 20260505172345 | 13 | 194 | 20.9 | 25.7 | 0.00 | 0.00 | 0.00 | 87 | 1011.4 |
| 20260505171845 | 13 | 191 | 24.1 | 29.0 | 0.00 | 0.00 | 0.00 | 87 | 1011.6 |
| 20260505171342 | 14 | 198 | 19.3 | 24.1 | 0.00 | 0.00 | 0.00 | 87 | 1011.5 |
| 20260505170838 | 14 | 181 | 17.7 | 27.4 | 0.00 | 0.00 | 0.00 | 87 | 1011.6 |
| 20260505170335 | 14 | 208 | 19.3 | 25.7 | 0.00 | 0.00 | 0.00 | 87 | 1011.5 |
| 20260505165831 | 13 | 178 | 14.5 | 24.1 | 0.00 | 0.00 | 0.00 | 87 | 1011.6 |
| 20260505165326 | 14 | 174 | 19.3 | 24.1 | 0.00 | 0.00 | 0.00 | 87 | 1011.5 |
| 20260505164822 | 13 | 188 | 12.9 | 25.7 | 0.00 | 0.00 | 0.00 | 88 | 1011.8 |
| 20260505164320 | 13 | 186 | 16.1 | 25.7 | 0.00 | 0.00 | 0.00 | 87 | 1011.9 |
| 20260505163818 | 13 | 180 | 12.9 | 20.9 | 0.00 | 0.00 | 0.00 | 88 | 1012.0 |
| 20260505163316 | 13 | 186 | 12.9 | 22.5 | 0.00 | 0.00 | 0.00 | 88 | 1011.8 |
| 20260505162814 | 13 | 212 | 16.1 | 20.9 | 0.00 | 0.00 | 0.00 | 88 | 1011.9 |
| 20260505162310 | 13 | 189 | 12.9 | 22.5 | 0.00 | 0.00 | 0.00 | 88 | 1011.9 |
| 20260505161807 | 13 | 195 | 14.5 | 20.9 | 0.00 | 0.00 | 0.00 | 88 | 1012.0 |
| 20260505161304 | 14 | 213 | 12.9 | 20.9 | 0.00 | 0.00 | 0.00 | 88 | 1012.3 |
| 20260505160802 | 13 | 205 | 11.3 | 16.1 | 0.00 | 0.00 | 0.00 | 88 | 1012.1 |
| 20260505160259 | 13 | 215 | 9.7 | 17.7 | 0.00 | 0.00 | 0.00 | 89 | 1012.4 |
| 20260505153238 | 13 | 202 | 11.3 | 14.5 | 0.00 | 0.00 | 0.00 | 90 | 1012.4 |
| 20260505152736 | 13 | 194 | 9.7 | 14.5 | 0.00 | 0.00 | 0.00 | 90 | 1012.5 |
| 20260505152232 | 13 | 202 | 9.7 | 12.9 | 0.00 | 0.00 | 0.00 | 90 | 1012.7 |
| 20260505151732 | 13 | 206 | 8.0 | 9.7 | 0.00 | 0.00 | 0.00 | 90 | 1012.7 |
| 20260505151230 | 13 | 205 | 8.0 | 11.3 | 0.00 | 0.00 | 0.00 | 91 | 1012.7 |
| 20260505150726 | 13 | 207 | 6.4 | 14.5 | 0.00 | 0.00 | 0.00 | 91 | 1012.6 |
| 20260505150223 | 13 | 195 | 8.0 | 12.9 | 0.00 | 0.00 | 0.00 | 91 | 1012.7 |